GW5617 Weather Reports


time (UTC)temp
C
wind
direction
speed
KPH
gust
KPH
rain 1hr
cm
rain 24hr
cm
rain mn
cm
humidity
%
barometer
mb
20260906183016 31 185 0.0 6.4 0.00 0.00 0.00 68 1015.0
20260906181523 31 210 3.2 6.4 0.00 0.00 0.00 69 1015.1
20260906180053 30 150 3.2 8.0 0.00 0.00 0.00 72 1015.2
20260906174534 30 186 3.2 6.4 0.00 0.00 0.00 75 1015.3
20260906173034 28 260 1.6 6.4 0.00 0.00 0.00 76 1015.5
20260906171519 28 219 1.6 8.0 0.00 0.00 0.00 78 1015.6
20260906170025 27 162 0.0 6.4 0.00 0.00 0.00 82 1015.9
20260906164530 27 73 1.6 4.8 0.00 0.00 0.00 83 1015.9
20260906163030 26 87 0.0 3.2 0.00 0.00 0.00 85 1015.9
20260906161534 26 153 0.0 4.8 0.00 0.00 0.00 86 1016.2
20260906160017 26 116 0.0 0.0 0.00 0.00 0.00 87 1016.0
20260906154526 26 116 0.0 1.6 0.00 0.00 0.00 87 1016.4
20260906153028 25 207 0.0 4.8 0.00 0.00 0.00 86 1016.4
20260906151533 25 208 3.2 8.0 0.00 0.00 0.00 86 1016.4
20260906150033 26 200 4.8 9.7 0.00 0.00 0.00 87 1016.7
20260906144522 26 89 0.0 4.8 0.00 0.00 0.00 87 1015.5
20260906143033 26 186 1.6 11.3 0.00 0.00 0.00 86 1015.5
20260906141529 25 143 0.0 3.2 0.00 0.00 0.00 87 1015.5
20260906140016 25 84 0.0 4.8 0.00 0.00 0.00 87 1015.6
20260906134511 25 27 0.0 3.2 0.00 0.00 0.00 88 1015.7
20260906133012 25 182 1.6 6.4 0.00 0.00 0.00 87 1015.7
20260906131530 25 51 3.2 8.0 0.00 0.00 0.00 88 1015.8
20260906130015 25 79 1.6 4.8 0.00 0.00 0.00 90 1015.7
20260906124513 24 91 1.6 4.8 0.00 0.00 0.00 91 1015.5
20260906123014 24 60 0.0 4.8 0.00 0.00 0.00 91 1015.3
20260906121514 23 65 0.0 4.8 0.00 0.00 0.00 91 1015.2
20260906120018 23 91 0.0 3.2 0.00 0.00 0.00 91 1014.9
20260906114510 23 72 0.0 3.2 0.00 0.00 0.00 92 1014.7
20260906113021 23 114 0.0 3.2 0.00 0.00 0.00 92 1014.6
20260906111519 23 86 0.0 1.6 0.00 0.00 0.00 92 1014.7
20260906110019 23 86 0.0 1.6 0.00 0.00 0.00 92 1014.7
20260906104532 23 88 0.0 1.6 0.00 0.00 0.00 92 1014.7
20260906103010 23 87 0.0 1.6 0.00 0.00 0.00 91 1014.5
20260906101517 23 95 0.0 1.6 0.00 0.00 0.00 91 1014.4
20260906100018 24 118 0.0 3.2 0.00 0.00 0.00 90 1014.3
20260906094534 24 66 0.0 0.0 0.00 0.00 0.00 90 1014.3
20260906093034 24 67 0.0 1.6 0.00 0.00 0.00 90 1014.4
20260906091511 24 65 0.0 1.6 0.00 0.00 0.00 90 1014.4
20260906090017 24 65 0.0 0.0 0.00 0.00 0.00 90 1014.5
20260906084542 24 65 0.0 0.0 0.00 0.00 0.00 90 1014.5
20260906083034 24 65 0.0 0.0 0.00 0.00 0.00 90 1014.4
20260906081524 24 65 0.0 3.2 0.00 0.00 0.00 90 1014.3
20260906080026 25 65 0.0 1.6 0.00 0.00 0.00 89 1014.3
20260906074518 25 65 0.0 4.8 0.00 0.00 0.00 88 1014.3
20260906073028 25 76 0.0 1.6 0.00 0.00 0.00 87 1014.1
20260906071527 25 72 0.0 3.2 0.00 0.00 0.00 87 1014.1
20260906070028 25 84 0.0 3.2 0.00 0.00 0.00 86 1014.4
20260906064516 25 108 0.0 4.8 0.00 0.00 0.00 86 1014.3
20260906063004 26 96 0.0 6.4 0.00 0.00 0.00 86 1014.4
20260906061505 26 82 0.0 6.4 0.00 0.00 0.00 86 1014.4
20260906060009 26 69 0.0 8.0 0.00 0.00 0.00 86 1014.4
20260906054514 26 84 1.6 4.8 0.00 0.00 0.00 86 1014.4
20260906053017 26 58 1.6 3.2 0.00 0.00 0.00 86 1014.5
20260906051525 26 91 1.6 3.2 0.00 0.00 0.00 87 1014.5
20260906050005 26 93 0.0 6.4 0.00 0.00 0.00 87 1014.4
20260906044514 26 91 1.6 4.8 0.00 0.00 0.00 87 1014.5
20260906043017 26 89 0.0 3.2 0.00 0.00 0.00 87 1014.6
20260906041518 26 87 0.0 3.2 0.00 0.00 0.00 86 1014.7
20260906040029 26 63 0.0 4.8 0.00 0.00 0.00 86 1014.6
20260906034511 26 80 0.0 3.2 0.00 0.00 0.00 85 1014.6
20260906033022 26 101 0.0 3.2 0.00 0.00 0.00 85 1014.4
20260906031513 26 110 0.0 3.2 0.00 0.00 0.00 85 1014.4
20260906030017 26 83 0.0 3.2 0.00 0.00 0.00 85 1014.2
20260906024526 26 83 0.0 1.6 0.00 0.00 0.00 84 1013.8
20260906023005 26 83 0.0 1.6 0.00 0.00 0.00 84 1013.6
20260906021511 27 83 0.0 1.6 0.00 0.00 0.00 82 1013.5
20260906020015 27 83 0.0 1.6 0.00 0.00 0.00 82 1013.3
20260906014534 27 98 0.0 1.6 0.00 0.00 0.00 81 1013.0
20260906013028 27 91 0.0 1.6 0.00 0.00 0.00 81 1012.9
20260906011508 28 91 0.0 1.6 0.00 0.00 0.00 79 1012.8
20260906010014 28 94 0.0 1.6 0.00 0.00 0.00 77 1012.7
20260906004533 29 98 0.0 3.2 0.00 0.00 0.00 75 1012.7
20260906003040 30 104 0.0 1.6 0.00 0.00 0.00 74 1012.5
20260906001528 30 104 0.0 4.8 0.00 0.00 0.00 72 1012.7
20260906000010 30 86 1.6 3.2 0.00 0.00 0.00 70 1012.5
20260905234512 31 68 1.6 4.8 0.00 0.00 0.00 69 1012.1
20260905233016 31 49 1.6 3.2 0.00 0.00 0.00 68 1012.2
20260905231525 31 86 0.0 3.2 0.00 0.00 0.00 67 1012.3
20260905230031 31 97 1.6 6.4 0.00 0.00 0.00 65 1012.4
20260905224534 32 69 3.2 9.7 0.00 0.00 0.00 63 1012.4
20260905223014 32 83 1.6 8.0 0.00 0.00 0.00 64 1012.4
20260905221520 32 165 1.6 9.7 0.00 0.00 0.00 62 1012.3
20260905220028 32 97 1.6 11.3 0.00 0.00 0.00 63 1011.9
20260905214532 32 146 1.6 12.9 0.00 0.00 0.00 62 1012.0
20260905213039 32 130 3.2 11.3 0.00 0.00 0.00 59 1012.2
20260905211516 32 230 3.2 9.7 0.00 0.00 0.00 59 1012.5
20260905210022 31 17 4.8 11.3 0.00 0.00 0.00 60 1012.8
20260905204525 31 86 1.6 11.3 0.00 0.00 0.00 61 1012.9
20260905203005 31 94 4.8 16.1 0.00 0.00 0.00 59 1013.2
20260905201513 31 42 3.2 14.5 0.00 0.00 0.00 62 1013.6
20260905200015 31 108 6.4 12.9 0.00 0.00 0.00 59 1013.8
20260905194521 31 321 4.8 11.3 0.00 0.00 0.00 59 1014.5
20260905193034 31 49 4.8 14.5 0.00 0.00 0.00 58 1014.9
20260905191506 30 117 4.8 14.5 0.00 0.00 0.00 63 1014.9
20260905190012 30 79 6.4 17.7 0.00 0.00 0.00 64 1015.2
20260905184535 30 359 6.4 17.7 0.00 0.00 0.00 68 1015.4